Torna al catalogo

USA 8

AttivoMilitareMEO
NORAD 15543·PAYLOAD·🇺🇸 United States

Lanciato Jan 24, 1985 da Cape Canaveral Space Force Station

Loading…

Prossimi Passaggi (prossime 24 ore)

TLE

AggiornatoSource: Space-Track

Epoca: Sep 13, 2026, 17:34 UTC

1 15543U 85010B   26256.73219453 -.00000029  00000-0  00000-0 0  9999
2 15543  12.4901 312.6956 0121878  57.7894 309.6356  0.99805731  8716

Traccia USA 8 in tempo reale con AllMySat

Download on the App Store